Regional Weather Roundup
Issued by NWS

Home | Current Version | Previous Version | Text Only | Print | Product List | Glossary On
Versions: 1 2 3 4 5 6 7 8 9 10 11 12 13 14 15 16 17 18 19 20 21 22 23 24 25 26 27 28 29 30 31 32 33 34 35 36 37 38 39 40 41 42 43 44 45 46 47 48 49 50
246
ASUS44 KJAN 271710
RWRMS

MISSISSIPPI HOURLY WEATHER ROUNDUP
NATIONAL WEATHER SERVICE JACKSON MS
1200 PM CDT THU JUL 27 2017

NOTE: "FAIR: INDICATES FEW OR NO CLOUDS BELOW 12,000 FEET WITH NO
SIGNIFICANT WEATHER AND/OR OBSTRUCTIONS TO VISIBILITY.

MSZ001>002-007>008-010>013-018>021-025>028-034>036-271800-
NORTHWEST MISSISSIPPI

CITY           SKY/WX    TMP DP  RH WIND       PRES   REMARKS
BATESVILLE     FAIR      89  76  65 SW6       30.05F HX 100
CLARKSDALE       N/A     93  79  62 W10G17    30.04S HX 110
CLEVELAND      FAIR      90  76  63 W6        30.04F HX 102
GREENWOOD      PTSUNNY   91  78  65 SW7       30.05F HX 106
GREENVILLE     MOSUNNY   90  76  63 VRB6      30.04F HX 101
OLIVE BRANCH   PTSUNNY  N/A N/A N/A SW9       30.02F
OXFORD         FAIR      90  72  55 W13       30.07S HX  96
TUNICA           N/A     88  77  70 W10       30.04S HX 100
WINONA         FAIR      88  77  68 SW5       30.06F HX 100
$$

MSZ003>006-009-014>017-022>024-029>033-037>039-271800-
NORTHEAST MISSISSIPPI

CITY           SKY/WX    TMP DP  RH WIND       PRES   REMARKS
COLUMBUS AFB   MOSUNNY   92  78  61 W9        30.03F HX 107
CORINTH        PTSUNNY   90  72  55 W7        30.03F HX  96
GOLDN TRIANGLE MOSUNNY   93  72  49 CALM      30.01F HX 100
STARKVILLE     FAIR      91  72  52 W9        30.07F HX  98
TUPELO         MOSUNNY   93  71  48 NW9       30.04F HX 100
$$

MSZ040-058-271800-
CENTRAL MISSISSIPPI

CITY           SKY/WX    TMP DP  RH WIND       PRES   REMARKS
JACKSON INTL   MOSUNNY   92  76  59 W7        30.08F HX 104
JACKSON HAWKNS MOSUNNY   91  77  63 W7        30.08F HX 104
MADISON        FAIR      88  73  62 CALM      30.07F HX  96
MERIDIAN KEY   MOSUNNY   93  76  57 VRB5      30.07F HX 105
MERIDIAN NAS   MOSUNNY   91  71  51 W6        30.07F HX  97
RAYMOND        FAIR      90  77  66 SW6       30.07F HX 102
$$

MSZ059>079-271800-
SOUTH MISSISSIPPI

CITY           SKY/WX    TMP DP  RH WIND       PRES   REMARKS
COLUMBIA       FAIR      90  77  66 W5        30.11S HAZE    HX 102
HATTIESBURG    SUNNY     91  74  57 VRB5      30.08F HX 100
LAUREL         FAIR      90  71  53 NW5       30.08S HX  95
MCCOMB         SUNNY     89  71  55 W7        30.09F HX  95
NATCHEZ        SUNNY     89  73  59 SW7       30.09F HX  97
PINE BELT      PTSUNNY   92  76  59 NW6       30.09F HX 104
$$

MSZ080>082-271800-
COASTAL MISSISSIPPI

CITY           SKY/WX    TMP DP  RH WIND       PRES   REMARKS
BAY ST LOUIS   MOSUNNY   90  75  62 N6        30.06F HX 100
BILOXI         SUNNY     92  74  55 N3        30.05F HX 101
PASCAGOULA     SUNNY     93  74  53 VRB3      30.04F HX 103
GULFPORT       SUNNY     93  72  50 VRB5      30.05F HX 101
$$

LAZ007>009-015>016-023>026-271800-
NORTHEAST LOUISIANA

CITY           SKY/WX    TMP DP  RH WIND       PRES   REMARKS
BASTROP        FAIR      92  76  59 SW7       30.06F HX 103
TALLULAH/VBURG SUNNY     90  75  61 VRB5      30.07F HX 100
VIDALIA        FAIR      88  72  58 W3        30.07F HX  94
$$




USA.gov is the U.S. government's official web portal to all federal, state and local government web resources and services.